Location: Carnoy
(49.9849°N, 2.7558°E)
Time: 21:57:03
(UTC+00:00)

STARLINK-1083 - Pass Details

Date: 24 January 2020
Orbit: 349 x 351 km, 53.0° (Epoch: 18 February)

Event Time Altitude Azimuth Distance (km) Brightness Sun altitude
Rises 17:12:45 0° 265° (W) 2,162 8.4 -7.2°
Reaches altitude 10° 17:14:48 10° 270° (W) 1,320 6.9 -7.5°
Maximum altitude 17:17:41 52° 348° (NNW) 448 3.1 -7.9°
Enters shadow 17:20:19 12° 66° (ENE) 1,216 4.7 -8.3°
